Weather History for Red Bluff, CA

Change the Weather History Date:

Tuesday, June 10, 2014

  Actual Average Record
Temperature  
Mean Temperature 93 °F -  
Max Temperature 104 °F 87 °F 104 °F (2014)
Min Temperature 82 °F 60 °F 49 °F (1953)
Cooling Degree Days 28    
Growing Degree Days 43 (Base 50)    
Moisture  
Dew Point 31 °F    
Average Humidity 12    
Maximum Humidity 25    
Minimum Humidity 4    
Precipitation  
Precipitation 0.00 in - - ()
Sea Level Pressure  
Sea Level Pressure 29.68 in    
Wind  
Wind Speed 16 mph (North)    
Max Wind Speed 24 mph    
Max Gust Speed 33 mph    
Visibility 10 miles    
Events      
Averages and records for this station are not official NWS values.
T = Trace of Precipitation, MM = Missing Value Source: NWS Daily Summary

Daily Weather History Graph

Daily Weather History Graph

Search for Another Location

Airport:

Trip Planner

Search our weather history database for the weather conditions in past years. The results will help you decide how hot, cold, wet, or windy it might be!

Date:

Astronomy

Jun. 10, 2014 Rise Set
Actual Time 5:39 AM PDT 8:37 PM PDT
Civil Twilight 5:06 AM PDT 9:10 PM PDT
Nautical Twilight 4:25 AM PDT 9:52 PM PDT
Astronomical Twilight 3:36 AM PDT 10:40 PM PDT
Moon 6:08 PM PDT (6/10) 3:48 AM PDT (6/10)
Length of Visible Light 16h 04m
Length of Day
14h 58m
Waxing Gibbous, 93% of the Moon is Illuminated
Jun 10
Waxing Gibbous
Jun 12
Full
Jun 19
Last Quarter
Jun 27
New
Jul 5
First Quarter

Hourly Weather History & Observations

Time (PDT) Temp. Dew Point Humidity Pressure Visibility Wind Dir Wind Speed Gust Speed Precip Events Conditions
12:54 AM 86.0 °F 44.1 °F 23% 29.66 in 10.0 mi NNW 11.5 mph - N/A   Clear
1:54 AM 84.0 °F 44.1 °F 25% 29.67 in 10.0 mi NNW 11.5 mph - N/A   Clear
2:54 AM 84.9 °F 41.0 °F 21% 29.68 in 10.0 mi NNW 15.0 mph - N/A   Clear
3:54 AM 84.0 °F 37.9 °F 19% 29.68 in 10.0 mi NNW 16.1 mph - N/A   Clear
4:54 AM 82.9 °F 36.0 °F 19% 29.69 in 10.0 mi NNW 15.0 mph 24.2 mph N/A   Clear
5:54 AM 82.9 °F 33.1 °F 17% 29.71 in 10.0 mi North 15.0 mph - N/A   Clear
6:54 AM 84.0 °F 32.0 °F 15% 29.72 in 10.0 mi North 15.0 mph - N/A   Clear
7:54 AM 84.2 °F 33.8 °F 16% 29.74 in 10.0 mi North 19.6 mph 26.5 mph N/A   Clear
8:54 AM 88.0 °F 32.0 °F 14% 29.74 in 10.0 mi North 20.7 mph 29.9 mph N/A   Clear
9:54 AM 89.6 °F 33.8 °F 14% 29.75 in 10.0 mi NNW 21.9 mph 32.2 mph N/A   Clear
10:54 AM 91.9 °F 32.0 °F 12% 29.73 in 10.0 mi North 24.2 mph 31.1 mph N/A   Clear
11:54 AM 96.8 °F 30.2 °F 10% 29.74 in 10.0 mi North 17.3 mph 27.6 mph N/A   Clear
12:54 PM 99.0 °F 27.0 °F 8% 29.71 in 10.0 mi North 24.2 mph 33.4 mph N/A   Clear
1:54 PM 100.4 °F 28.4 °F 8% 29.70 in 10.0 mi North 18.4 mph 27.6 mph N/A   Clear
2:54 PM 102.0 °F 27.0 °F 7% 29.67 in 10.0 mi North 19.6 mph 24.2 mph N/A   Clear
3:54 PM 104.0 °F 21.9 °F 5% 29.65 in 10.0 mi North 18.4 mph 24.2 mph N/A   Clear
4:54 PM 104.0 °F 24.1 °F 6% 29.63 in 10.0 mi North 19.6 mph 24.2 mph N/A   Clear
5:54 PM 102.9 °F 25.0 °F 6% 29.61 in 10.0 mi North 17.3 mph - N/A   Clear
6:54 PM 100.9 °F 21.9 °F 6% 29.61 in 10.0 mi NNE 16.1 mph 27.6 mph N/A   Clear
7:54 PM 98.6 °F 24.8 °F 7% 29.63 in 10.0 mi North 13.8 mph - N/A   Clear
8:54 PM 91.9 °F 28.0 °F 10% 29.63 in 10.0 mi North 10.4 mph - N/A   Clear
9:54 PM 90.0 °F 25.0 °F 10% 29.65 in 10.0 mi North 12.7 mph - N/A   Clear
10:54 PM 86.0 °F 30.0 °F 13% 29.66 in 10.0 mi NNW 15.0 mph - N/A   Clear
11:54 PM 84.9 °F 28.9 °F 13% 29.67 in 10.0 mi NNW 12.7 mph - N/A   Clear